P/2021 N2 ( Fuls )

Japanese version
Home page
Updated on September 18, 2021

---------------------------------------------------------------------

* Profile

Discovery Date July 9, 2021
Magnitude 18.3 mag
Discoverer David Carson Fuls (Catalina Sky Survey)

* Pictures

* Orbital Elements

Epoch 2021 Nov. 2.0 TT = JDT 2459520.5
T 2021 Nov. 12.71447 TT                                 Rudenko
q   3.7972939            (2000.0)            P               Q
n   0.05390992     Peri.  177.24836     +0.77638184     -0.61203702
a   6.9399596      Node   221.74592     +0.57385361     +0.78517693
e   0.4528363      Incl.   13.06126     +0.26062092     +0.09438155
P  18.3
From 154 observations 2021 June 27-Sept. 1, mean residual 0".7.

* Magnitudes Graph

        m1 = 9.0 + 5 log d + 10.0 log r

---------------------------------------------------------------------

The orbital elements are published on M.P.E.C. 2021-R75.
The magnitudes graphs are made with Comet for Windows.

---------------------------------------------------------------------

Copyright(C) Seiichi Yoshida (comet@aerith.net). All rights reserved.